sat.trackr.live / text

‹ back to catalog

STARLINK-32440

NORAD 61714 · 2024-196H

PAYLOAD ACTIVE UNKNOWN

§ Identity

Operator
Country
US
Launch date
2024-10-30
Launch site
AFETR
Launch vehicle
Mass (kg)
RCS (m²)

Purposes: comms

External: N2YO · Heavens-Above · Gunter

§ Orbital elements

Epoch: 2026-09-21T17:15:56.684448Z

Period
93.85 min
Inclination
53.1596°
Eccentricity
0.0001181
Mean motion
15.34395632 rev/d
Perigee alt
461.9 km
Apogee alt
463.5 km
Semi-major
6,840.9 km
B*
3.4506e-5
RAAN
267.6831°
Arg perigee
94.7531°
Mean anomaly
265.3607°
Rev number
10,721

§ Raw data

STARLINK-324401 61714U 24196H   26264.71940607  .00000790  00000+0  34506-4 0  99922 61714  53.1596 267.6831 0001181  94.7531 265.3607 15.34395632107214

JSON: /api/v1/satellites/61714 · /tle

For live sub-satellite position, see the globe view (requires WebGL).

§ Visibility from observer

Set your observer location to see the next 7 days of passes ≥ 10°. The values pass through the URL so the page stays shareable.

No JS? Fill the form by hand. The geolocation button needs JavaScript.